Location: Miles
(41.4492°N, 81.6087°W)
Time: 05:43:43
(UTC+00:00)

Courier 1B - Pass Details

Date: 18 September 2024
Orbit: 962 x 1208 km, 28.3° (Epoch: 11 October)

Event Time Altitude Azimuth Distance (km) Brightness Sun altitude
Rises 00:12:44 0° 255° (WSW) 4,044 12.0 -8.6°
Reaches altitude 10° 00:18:14 10° 223° (SW) 3,117 10.6 -9.6°
Maximum altitude 00:20:18 11° 207° (SSW) 3,034 10.3 -10.0°
Drops below altitude 10° 00:22:24 10° 191° (SSW) 3,131 10.2 -10.3°
Sets 00:28:00 0° 160° (SSE) 4,096 10.4 -11.4°
